CDT,Max TemperatureF,Mean TemperatureF,Min TemperatureF,Max Dew PointF,MeanDew PointF,Min DewpointF,Max Humidity, Mean Humidity, Min Humidity, Max Sea Level PressureIn, Mean Sea Level PressureIn, Min Sea Level PressureIn, Max VisibilityMiles, Mean VisibilityMiles, Min VisibilityMiles, Max Wind SpeedMPH, Mean Wind SpeedMPH, Max Gust SpeedMPH,PrecipitationIn, CloudCover, Events, WindDirDegrees
2012-9-1,91,83,75,81,78,75,100,90,66,30.18,30.12,30.08,10,8,2,10,3,,0.00,4,Rain-Thunderstorm,177
2012-9-2,93,84,75,81,78,75,100,88,59,30.13,30.05,29.98,10,8,1,9,2,,0.00,1,Rain-Thunderstorm,250
2012-9-3,93,85,77,79,78,75,100,82,56,30.06,30.00,29.94,10,9,7,9,4,,0.00,1,,242
2012-9-4,93,85,77,79,77,75,100,79,56,30.00,29.95,29.89,10,10,7,15,6,20,0.00,1,,255
2012-9-5,95,86,77,81,78,77,100,82,59,29.94,29.89,29.83,10,10,5,14,7,22,0.00,3,Thunderstorm,282
2012-9-6,95,86,77,81,79,77,100,85,56,29.97,29.92,29.87,10,8,2,7,2,23,0.00,2,Rain-Thunderstorm,31
2012-9-7,93,84,75,79,77,75,100,84,56,29.96,29.90,29.84,10,10,5,8,2,,0.00,1,,119
2012-9-8,93,83,71,79,75,70,100,85,56,29.99,29.88,29.82,10,10,3,15,3,22,0.00,3,Rain-Thunderstorm,332
2012-9-9,84,73,62,68,62,59,100,71,42,30.07,30.02,29.96,10,10,10,10,5,16,0.00,0,,358
2012-9-10,87,73,59,66,62,59,100,74,40,30.13,30.09,30.06,10,10,10,10,2,,0.00,0,,51
2012-9-11,87,74,62,72,66,61,100,77,51,30.17,30.11,30.08,10,10,10,10,3,16,0.00,0,,95
2012-9-12,91,80,69,75,71,66,94,81,52,30.16,30.11,30.06,10,10,10,15,5,21,0.00,2,Thunderstorm,93
2012-9-13,89,80,71,75,73,70,100,87,58,30.17,30.14,30.10,10,10,1,28,4,36,0.14,2,Rain-Thunderstorm,84
2012-9-14,89,79,69,72,70,66,100,77,46,30.18,30.14,30.09,10,9,5,12,3,,0.00,0,,56
2012-9-15,89,78,66,73,69,66,100,75,49,30.15,30.10,30.05,10,10,10,8,2,,0.00,2,,42
2012-9-16,89,79,69,77,73,70,100,84,55,30.07,30.01,29.94,10,10,2,9,2,,0.05,1,Rain,111
2012-9-17,78,74,71,75,74,70,100,97,89,29.95,29.82,29.71,10,8,2,8,2,,0.02,5,Rain-Thunderstorm,87
2012-9-18,84,76,68,72,70,66,100,83,58,30.04,29.89,29.79,10,9,2,14,5,21,0.01,3,Rain,329
2012-9-19,80,70,60,66,61,57,100,77,48,30.12,30.07,30.04,10,10,10,9,3,,0.00,0,,2
2012-9-20,84,72,59,70,62,57,100,78,51,30.11,30.07,30.01,10,10,7,6,1,,0.00,1,,67
2012-9-21,89,76,62,70,66,63,100,80,46,30.07,30.02,29.97,10,8,5,7,1,,0.00,0,,124
2012-9-22,89,76,64,73,69,64,100,82,49,30.11,30.07,30.02,10,8,0,8,1,,0.01,1,Fog,342
2012-9-23,91,78,66,73,71,66,100,80,49,30.18,30.14,30.10,10,8,3,8,1,,0.32,0,,12
2012-9-24,89,78,68,73,71,68,100,81,52,30.20,30.14,30.08,10,9,4,6,1,,0.00,1,,31
2012-9-25,87,78,68,73,71,66,100,80,58,30.14,30.10,30.06,10,10,7,10,3,16,0.00,1,,125
2012-9-26,87,74,62,72,68,63,100,81,49,30.14,30.09,30.06,10,10,10,8,1,,0.00,1,,130
2012-9-27,89,78,66,75,71,66,100,82,46,30.16,30.10,30.04,10,9,2,10,2,,0.00,1,,117
2012-9-28,84,76,69,77,74,70,100,96,74,30.10,30.05,30.00,10,8,0,13,1,17,0.19,3,Fog-Rain-Thunderstorm,94
2012-9-29,77,74,71,75,74,72,100,100,94,30.00,29.94,29.86,10,8,2,7,1,,0.01,7,Rain,103
2012-9-30,82,78,73,79,75,73,100,96,84,29.85,29.68,29.55,10,9,2,15,5,20,0.00,7,Rain-Thunderstorm,155